Home   Weather   Ras al-Khaimah   Past weeks

Flag for United Arab Emirates Past Weather in Ras al-Khaimah, Ras al-Khaimah, United Arab Emirates — Yesterday and Last 2 Weeks

Now
72 °F

Passing clouds.


Feels Like: 75 °F
Forecast: 72 / 90 °F
Wind: 3 mph from East

Location: Ras Al Khaimah International Airport

Current Time: Dec 3, 2016 at 9:47:56 pm

Latest Report: Dec 3, 2016 at 9:00 pm


Visibility: N/A

Pressure: 30.12 "Hg

Humidity: 65%

Dew Point: 59 °F

Location of Ras al-KhaimahLocation

Past Weather in Ras al-Khaimah — Graph

°F

Ras al-Khaimah Temperature Yesterday

Maximum temperature yesterday: 90 °F (at 12:00 pm)
Minimum temperature yesterday: 61 °F (at 7:00 am)
Average temperature yesterday: 73 °F

High & Low Weather Summary for the Past Weeks

 TemperatureHumidityPressure
High90 °F (Dec 2, 12:00 pm)100% (Nov 23, 10:00 pm)30.15 "Hg (Nov 23, 10:00 pm)
Low57 °F (Nov 27, 7:00 am)29% (Nov 27, 2:00 pm)29.83 "Hg (Nov 20, 3:00 pm)
Average74 °F64%30.01 "Hg
* Reported Nov 18 9:00 pm — Dec 3 9:00 pm, Ras al-Khaimah, Weather by CustomWeather, © 2016

Note: Actual official high and low records may vary slightly from our data, if they occured in-between our weather recording intervals... More about our weather records

Advertising

Ras al-Khaimah Weather History for the Previous 24 Hours

Scroll right to see more
 ConditionsComfort  
Time TempWeatherWind HumidityBarometerVisibility
9:00 pm
Sat, Dec 3
72 °FPassing clouds.3 mph65%30.12 "HgN/A
8:00 pm73 °FClear.No wind65%30.12 "Hg10 mi
7:00 pm75 °FClear.3 mph61%30.09 "Hg10 mi
6:00 pm79 °FClear.2 mph58%30.07 "Hg10 mi
5:00 pm84 °FSunny.7 mph48%30.07 "Hg10 mi
4:00 pm86 °FSunny.12 mph43%30.07 "Hg10 mi
3:00 pm86 °FSunny.10 mph46%30.07 "Hg10 mi
2:00 pm88 °FSunny.10 mph46%30.07 "Hg10 mi
1:00 pm86 °FSunny.10 mph52%30.09 "Hg10 mi
12:00 pm84 °FSunny.8 mph62%30.12 "Hg10 mi
11:00 am82 °FClear.6 mph66%30.12 "Hg4 mi
10:00 am73 °FFog.2 mph100%30.15 "Hg1 mi
9:00 am72 °FFog.No wind100%30.12 "Hg0 mi
8:00 am70 °FFog.No wind100%30.12 "Hg0 mi
7:00 am68 °FFog.2 mph30%30.09 "Hg0 mi
6:00 am66 °FFog.No wind100%30.09 "Hg0 mi
5:00 am64 °FFog.2 mph100%30.07 "Hg0 mi
4:00 am63 °FFog.2 mph94%30.07 "Hg2 mi
3:00 am64 °FFog.2 mph88%30.07 "Hg2 mi
2:00 am63 °FFog.2 mph94%30.07 "Hg2 mi
1:00 am64 °FHaze.2 mph94%30.07 "Hg3 mi
12:00 am68 °FHaze.2 mph88%30.07 "Hg3 mi
11:00 pm
Fri, Dec 2
68 °FHaze.3 mph94%30.07 "Hg3 mi
10:00 pm70 °FClear.No wind88%30.07 "Hg4 mi
9:00 pm72 °FClear.No wind88%30.07 "Hg4 mi
Weather by CustomWeather, © 2016

See weather overviewHow to use our weather pages